DW8241 Weather Reports


Display with metric or nautical units.
time (UTC)temp
F
wind
direction
speed
MPH
gust
MPH
rain 1hr
in
rain 24hr
in
rain mn
in
humidity
%
barometer
mb
20260903144520 73 109 2.0 6.0 0.00 0.00 0.00 76 1007.8
20260903143024 71 133 2.0 8.0 0.00 0.00 0.00 78 1007.7
20260903141515 70 143 1.0 5.0 0.00 0.00 0.00 80 1008.1
20260903140009 70 139 2.0 7.0 0.00 0.00 0.00 80 1008.3
20260903134507 69 125 1.0 6.0 0.00 0.00 0.00 81 1008.6
20260903133003 67 83 0.0 6.0 0.00 0.00 0.00 83 1008.7
20260903131609 66 153 1.0 3.0 0.00 0.00 0.00 85 1008.6
20260903130056 64 110 1.0 3.0 0.00 0.00 0.00 87 1008.8
20260903124610 63 111 0.0 2.0 0.00 0.00 0.00 88 1009.2
20260903123054 63 120 0.0 4.0 0.00 0.00 0.00 88 1009.1
20260903121553 62 107 1.0 5.0 0.00 0.00 0.00 89 1008.9
20260903120101 62 106 0.0 3.0 0.00 0.00 0.00 90 1008.9
20260903114552 61 127 0.0 3.0 0.00 0.00 0.00 90 1009.0
20260903113055 61 122 0.0 2.0 0.00 0.00 0.00 91 1008.9
20260903111548 61 113 0.0 3.0 0.00 0.00 0.00 92 1009.1
20260903110048 60 115 0.0 1.0 0.00 0.00 0.00 92 1009.7
20260903104548 60 114 0.0 1.0 0.00 0.00 0.00 93 1009.8
20260903103043 60 114 0.0 0.0 0.00 0.00 0.00 92 1009.8
20260903101553 60 113 0.0 1.0 0.00 0.00 0.00 92 1009.7
20260903100042 60 113 0.0 1.0 0.00 0.00 0.00 92 1009.7
20260903094559 61 113 0.0 1.0 0.00 0.00 0.00 92 1009.8
20260903093044 61 113 0.0 1.0 0.00 0.00 0.00 92 1009.9
20260903091542 61 113 0.0 1.0 0.00 0.00 0.00 91 1010.0
20260903090038 61 128 0.0 1.0 0.00 0.00 0.00 91 1010.0
20260903084537 61 121 0.0 1.0 0.00 0.00 0.00 91 1010.0
20260903083038 61 100 0.0 2.0 0.00 0.00 0.00 91 1010.2
20260903081534 61 124 0.0 1.0 0.00 0.00 0.00 91 1010.2
20260903080047 61 124 0.0 1.0 0.00 0.00 0.00 90 1010.3
20260903074529 61 125 0.0 1.0 0.00 0.00 0.00 89 1010.6
20260903073031 61 133 0.0 1.0 0.00 0.00 0.00 88 1010.9
20260903071526 62 96 0.0 2.0 0.00 0.00 0.00 87 1010.9
20260903070023 62 122 0.0 2.0 0.00 0.00 0.00 86 1010.9
20260903064522 63 110 0.0 1.0 0.00 0.00 0.00 86 1010.9
20260903063022 63 122 0.0 2.0 0.00 0.00 0.00 86 1011.0
20260903061520 63 122 0.0 2.0 0.00 0.00 0.00 85 1010.9
20260903060020 63 113 0.0 1.0 0.00 0.00 0.00 84 1011.1
20260903054519 63 105 0.0 1.0 0.00 0.00 0.00 83 1011.0
20260903053016 63 112 0.0 1.0 0.00 0.00 0.00 81 1011.1
20260903051512 64 112 0.0 1.0 0.00 0.00 0.00 80 1011.3
20260903050021 64 127 0.0 2.0 0.00 0.00 0.00 79 1011.2
20260903044518 65 114 0.0 1.0 0.00 0.00 0.00 79 1011.2
20260903043012 65 84 0.0 1.0 0.00 0.00 0.00 79 1011.2
20260903041513 64 84 0.0 1.0 0.00 0.00 0.00 82 1011.4
20260903040010 63 25 0.0 1.0 0.00 0.00 0.00 84 1011.4
20260903034509 62 32 0.0 1.0 0.00 0.00 0.00 85 1011.4
20260903033008 63 32 0.0 1.0 0.00 0.00 0.00 84 1011.6
20260903031508 63 32 0.0 1.0 0.00 0.00 0.00 83 1011.7
20260903030007 64 32 0.0 1.0 0.00 0.00 0.00 81 1011.8
20260903024511 65 33 1.0 2.0 0.00 0.00 0.00 80 1011.7
20260903023008 65 35 0.0 1.0 0.00 0.00 0.00 80 1011.8
20260903021506 66 35 0.0 1.0 0.00 0.00 0.00 78 1011.7
20260903020006 67 35 0.0 0.0 0.00 0.00 0.00 78 1011.3
20260903014505 68 35 0.0 2.0 0.00 0.00 0.00 77 1011.2
20260903013004 68 41 0.0 2.0 0.00 0.00 0.00 76 1011.1
20260903011504 70 41 0.0 1.0 0.00 0.00 0.00 74 1011.0
20260903010004 71 42 0.0 2.0 0.00 0.00 0.00 71 1011.0
20260903004503 73 41 0.0 3.0 0.00 0.00 0.00 68 1011.0
20260903003002 75 49 0.0 2.0 0.00 0.00 0.00 64 1011.0
20260903001501 77 40 1.0 3.0 0.00 0.00 0.00 61 1011.0
20260902234558 78 55 1.0 3.0 0.00 0.00 0.00 57 1011.1
20260902233058 79 54 1.0 4.0 0.00 0.00 0.00 58 1011.1
20260902231557 79 62 1.0 5.0 0.00 0.00 0.00 57 1011.2
20260902230111 79 50 1.0 6.0 0.00 0.00 0.00 58 1011.1
20260902224600 80 21 1.0 4.0 0.00 0.00 0.00 56 1011.2
20260902223056 80 32 2.0 7.0 0.00 0.00 0.00 59 1011.2
20260902221558 80 6 1.0 5.0 0.00 0.00 0.00 57 1011.1
20260902220059 80 103 1.0 5.0 0.00 0.00 0.00 58 1011.3
20260902214555 80 43 3.0 7.0 0.00 0.00 0.00 58 1011.4
20260902213051 80 114 1.0 4.0 0.00 0.00 0.00 56 1011.6
20260902211548 80 128 0.0 7.0 0.00 0.00 0.00 58 1011.8
20260902210045 79 68 2.0 7.0 0.00 0.00 0.00 59 1011.8
20260902204544 79 46 2.0 5.0 0.00 0.00 0.00 61 1011.9
20260902203043 79 87 3.0 9.0 0.00 0.00 0.00 62 1012.0
20260902201542 78 25 1.0 8.0 0.00 0.00 0.00 62 1012.0
20260902200040 79 80 1.0 7.0 0.00 0.00 0.00 64 1012.1
20260902194544 79 102 1.0 6.0 0.00 0.00 0.00 63 1012.2
20260902193037 78 103 3.0 7.0 0.00 0.00 0.00 62 1012.4
20260902191538 77 90 1.0 8.0 0.00 0.00 0.00 66 1012.5
20260902190049 77 51 2.0 7.0 0.00 0.00 0.00 63 1012.6
20260902184532 77 73 3.0 6.0 0.00 0.00 0.00 63 1012.5
20260902183030 77 2 4.0 9.0 0.00 0.00 0.00 63 1012.7
20260902181529 77 56 3.0 11.0 0.00 0.00 0.00 64 1012.8
20260902180034 76 5 4.0 8.0 0.00 0.00 0.00 64 1013.0
20260902174526 76 48 2.0 8.0 0.00 0.00 0.00 67 1013.0
20260902173035 76 37 1.0 9.0 0.00 0.00 0.00 67 1013.0
20260902171523 75 123 2.0 9.0 0.00 0.00 0.00 66 1013.2
20260902170021 74 39 3.0 6.0 0.00 0.00 0.00 69 1013.2
20260902164525 74 118 1.0 5.0 0.00 0.00 0.00 70 1013.5
20260902163019 75 46 1.0 4.0 0.00 0.00 0.00 71 1013.6
20260902161528 74 141 1.0 4.0 0.00 0.00 0.00 71 1013.7
20260902160012 73 87 1.0 5.0 0.00 0.00 0.00 72 1013.7
20260902154511 73 80 1.0 5.0 0.00 0.00 0.00 71 1013.7
20260902153008 72 113 0.0 4.0 0.00 0.00 0.00 73 1013.7
20260902151509 72 41 1.0 4.0 0.00 0.00 0.00 75 1013.8
20260902150006 71 75 0.0 4.0 0.00 0.00 0.00 80 1013.7